TimeEST,TemperatureF,Dew PointF,Humidity,Sea Level PressureIn,VisibilityMPH,Wind Direction,Wind SpeedMPH,Gust SpeedMPH,PrecipitationIn,Events,Conditions,WindDirDegrees,DateUTC
12:15 AM,34.9,22.8,61,30.29,10.0,WSW,6.9,16.1,N/A,,Overcast,240,2012-11-13 05:15:00
12:35 AM,34.9,22.5,61,30.30,10.0,WSW,6.9,-,N/A,,Overcast,240,2012-11-13 05:35:00
12:55 AM,34.9,23.0,62,30.30,10.0,WSW,8.1,-,N/A,,Overcast,240,2012-11-13 05:55:00
1:15 AM,34.9,23.0,62,30.31,10.0,WSW,10.4,-,N/A,,Overcast,240,2012-11-13 06:15:00
1:35 AM,34.9,23.0,62,30.31,10.0,WSW,8.1,-,N/A,,Overcast,240,2012-11-13 06:35:00
1:55 AM,34.9,23.0,62,30.31,10.0,WSW,9.2,-,N/A,,Overcast,240,2012-11-13 06:55:00
2:15 AM,35.1,23.5,63,30.32,10.0,WSW,6.9,-,N/A,,Overcast,250,2012-11-13 07:15:00
2:35 AM,34.9,23.4,63,30.32,10.0,WSW,6.9,-,N/A,,Overcast,250,2012-11-13 07:35:00
2:55 AM,34.7,23.5,64,30.33,10.0,WSW,8.1,-,N/A,,Overcast,240,2012-11-13 07:55:00
3:15 AM,34.7,23.7,64,30.33,10.0,WSW,5.8,-,N/A,,Overcast,240,2012-11-13 08:15:00
3:35 AM,34.7,23.2,63,30.33,10.0,WSW,8.1,-,N/A,,Overcast,240,2012-11-13 08:35:00
3:55 AM,34.5,23.4,64,30.33,10.0,WSW,8.1,-,N/A,,Overcast,240,2012-11-13 08:55:00
4:15 AM,34.3,23.0,63,30.33,10.0,SW,6.9,-,N/A,,Overcast,230,2012-11-13 09:15:00
4:35 AM,34.3,23.0,63,30.34,10.0,WSW,6.9,-,N/A,,Overcast,240,2012-11-13 09:35:00
4:55 AM,34.3,23.0,63,30.34,10.0,WSW,5.8,-,N/A,,Overcast,240,2012-11-13 09:55:00
5:15 AM,34.2,23.2,64,30.35,10.0,WSW,5.8,-,N/A,,Overcast,240,2012-11-13 10:15:00
5:35 AM,34.3,23.5,65,30.36,10.0,WSW,4.6,-,N/A,,Overcast,250,2012-11-13 10:35:00
5:55 AM,34.3,23.5,65,30.36,10.0,WSW,4.6,-,N/A,,Overcast,250,2012-11-13 10:55:00
6:15 AM,34.2,23.5,65,30.37,10.0,WSW,5.8,-,N/A,,Overcast,250,2012-11-13 11:15:00
6:35 AM,34.2,23.7,66,30.38,10.0,WSW,3.5,-,N/A,,Overcast,250,2012-11-13 11:35:00
7:15 AM,34.2,24.6,68,30.40,10.0,West,5.8,-,N/A,,Overcast,280,2012-11-13 12:15:00
7:35 AM,34.2,25.0,69,30.40,10.0,Calm,Calm,-,N/A,,Overcast,0,2012-11-13 12:35:00
7:55 AM,34.2,25.5,71,30.41,10.0,Calm,Calm,-,N/A,,Overcast,0,2012-11-13 12:55:00
8:15 AM,34.3,25.3,70,30.42,10.0,Calm,Calm,-,N/A,,Overcast,0,2012-11-13 13:15:00
8:35 AM,34.3,24.8,68,30.43,10.0,Calm,Calm,-,N/A,,Overcast,0,2012-11-13 13:35:00
8:55 AM,34.2,23.9,66,30.44,10.0,Calm,Calm,-,N/A,,Overcast,0,2012-11-13 13:55:00
9:15 AM,34.2,22.8,63,30.45,10.0,NW,3.5,-,N/A,,Overcast,320,2012-11-13 14:15:00
9:35 AM,34.3,22.5,62,30.45,10.0,Calm,Calm,-,N/A,,Overcast,0,2012-11-13 14:35:00
9:55 AM,35.2,22.6,60,30.45,10.0,NW,3.5,-,N/A,,Overcast,310,2012-11-13 14:55:00
10:15 AM,35.6,22.3,58,30.46,10.0,West,3.5,-,N/A,,Overcast,280,2012-11-13 15:15:00
10:35 AM,35.2,22.8,61,30.46,10.0,Calm,Calm,-,N/A,,Overcast,0,2012-11-13 15:35:00
10:55 AM,36.1,22.6,58,30.47,10.0,NW,5.8,-,N/A,,Overcast,320,2012-11-13 15:55:00
11:15 AM,36.3,22.6,58,30.48,10.0,NW,5.8,-,N/A,,Overcast,320,2012-11-13 16:15:00
11:35 AM,36.5,22.1,56,30.48,10.0,WSW,3.5,-,N/A,,Overcast,250,2012-11-13 16:35:00
11:55 AM,36.1,20.8,54,30.47,10.0,WSW,3.5,-,N/A,,Overcast,250,2012-11-13 16:55:00
12:15 PM,36.5,21.0,54,30.46,10.0,WNW,5.8,-,N/A,,Overcast,300,2012-11-13 17:15:00
12:35 PM,36.0,21.0,55,30.46,10.0,Calm,Calm,-,N/A,,Overcast,0,2012-11-13 17:35:00
12:55 PM,36.0,21.0,55,30.45,10.0,WSW,4.6,-,N/A,,Overcast,250,2012-11-13 17:55:00
1:15 PM,36.5,21.9,56,30.45,10.0,WSW,3.5,-,N/A,,Overcast,250,2012-11-13 18:15:00
1:54 PM,36.5,21.9,56,30.46,10.0,Calm,Calm,-,N/A,,Mostly Cloudy,0,2012-11-13 18:54:00
2:15 PM,37.0,21.0,52,30.46,10.0,West,4.6,-,N/A,,Mostly Cloudy,260,2012-11-13 19:15:00
2:35 PM,37.4,20.1,50,30.45,10.0,Calm,Calm,-,N/A,,Overcast,0,2012-11-13 19:35:00
2:55 PM,36.5,22.1,56,30.46,10.0,NW,8.1,-,N/A,,Overcast,320,2012-11-13 19:55:00
3:15 PM,35.8,21.0,55,30.46,10.0,NNW,5.8,-,N/A,,Overcast,330,2012-11-13 20:15:00
3:35 PM,35.6,20.7,55,30.46,10.0,North,5.8,-,N/A,,Overcast,360,2012-11-13 20:35:00
3:55 PM,35.8,21.0,55,30.47,10.0,NNW,4.6,-,N/A,,Overcast,330,2012-11-13 20:55:00
4:15 PM,35.6,20.1,53,30.48,10.0,North,3.5,-,N/A,,Overcast,350,2012-11-13 21:15:00
4:35 PM,35.6,20.5,54,30.48,10.0,North,5.8,-,N/A,,Overcast,350,2012-11-13 21:35:00
4:55 PM,35.1,21.4,57,30.48,10.0,North,5.8,-,N/A,,Overcast,350,2012-11-13 21:55:00
5:15 PM,34.7,21.6,59,30.49,10.0,North,4.6,-,N/A,,Overcast,350,2012-11-13 22:15:00
5:35 PM,34.7,22.5,61,30.49,10.0,Calm,Calm,-,N/A,,Overcast,0,2012-11-13 22:35:00
5:55 PM,34.3,21.7,60,30.49,10.0,Calm,Calm,-,N/A,,Overcast,0,2012-11-13 22:55:00
6:15 PM,34.2,22.1,61,30.49,10.0,Calm,Calm,-,N/A,,Overcast,0,2012-11-13 23:15:00
6:35 PM,33.8,22.6,64,30.50,10.0,Calm,Calm,-,N/A,,Overcast,0,2012-11-13 23:35:00
6:55 PM,33.6,23.2,66,30.50,10.0,Calm,Calm,-,N/A,,Overcast,0,2012-11-13 23:55:00
7:15 PM,33.6,24.3,69,30.51,10.0,Calm,Calm,-,N/A,,Overcast,0,2012-11-14 00:15:00
7:35 PM,33.1,23.9,69,30.51,10.0,Calm,Calm,-,N/A,,Overcast,0,2012-11-14 00:35:00
7:55 PM,33.4,24.1,69,30.52,10.0,Calm,Calm,-,N/A,,Overcast,0,2012-11-14 00:55:00
8:15 PM,33.8,23.7,67,30.52,10.0,Calm,Calm,-,N/A,,Overcast,0,2012-11-14 01:15:00
8:35 PM,32.0,25.0,75,30.52,10.0,Calm,Calm,-,N/A,,Overcast,0,2012-11-14 01:35:00
8:55 PM,32.0,25.3,76,30.53,10.0,Calm,Calm,-,N/A,,Overcast,0,2012-11-14 01:55:00
9:15 PM,31.1,25.0,78,30.53,10.0,Calm,Calm,-,N/A,,Mostly Cloudy,0,2012-11-14 02:15:00
9:35 PM,30.7,24.1,76,30.54,10.0,Calm,Calm,-,N/A,,Scattered Clouds,0,2012-11-14 02:35:00
9:55 PM,28.9,23.5,80,30.54,10.0,Calm,Calm,-,N/A,,Clear,0,2012-11-14 02:55:00
10:15 PM,28.2,23.7,83,30.54,10.0,Calm,Calm,-,N/A,,Clear,0,2012-11-14 03:15:00
10:35 PM,27.5,23.7,86,30.54,10.0,Calm,Calm,-,N/A,,Clear,0,2012-11-14 03:35:00
10:55 PM,27.9,24.1,86,30.54,10.0,Calm,Calm,-,N/A,,Clear,0,2012-11-14 03:55:00
11:15 PM,27.5,23.9,86,30.54,10.0,Calm,Calm,-,N/A,,Clear,0,2012-11-14 04:15:00
11:35 PM,27.0,22.1,82,30.54,10.0,Calm,Calm,-,N/A,,Clear,0,2012-11-14 04:35:00
11:55 PM,27.0,23.0,85,30.54,10.0,Calm,Calm,-,N/A,,Clear,0,2012-11-14 04:55:00